OK2ZEO-5 Weather Reports


time (UTC)temp
C
wind
direction
speed
KPH
gust
KPH
rain 1hr
cm
rain 24hr
cm
rain mn
cm
humidity
%
barometer
mb
20260508023503 8 0 0.0 0.0 0.00 0.23 0.03 61 1016.3
20260508023216 8 0 0.0 0.0 0.00 0.23 0.03 61 1016.3
20260508022503 8 0 0.0 0.0 0.00 0.23 0.03 62 1016.3
20260508022003 8 0 0.0 0.0 0.00 0.23 0.03 62 1016.3
20260508021719 8 0 0.0 0.0 0.00 0.23 0.03 63 1016.2
20260508021003 8 0 0.0 0.0 0.00 0.23 0.03 63 1016.3
20260508020503 8 0 0.0 0.0 0.00 0.23 0.03 62 1016.3
20260508020003 9 0 0.0 0.0 0.00 0.23 0.03 62 1016.3
20260508015503 9 0 0.0 0.0 0.00 0.23 0.03 63 1016.2
20260508015216 9 0 0.0 0.0 0.00 0.23 0.03 63 1016.2
20260508014503 9 0 0.0 0.0 0.00 0.23 0.03 63 1016.3
20260508014003 10 0 0.0 0.0 0.00 0.23 0.03 62 1016.3
20260508013503 10 0 0.0 0.0 0.00 0.23 0.03 62 1016.3
20260508013003 10 0 0.0 0.0 0.00 0.23 0.03 62 1016.3
20260508012717 10 0 0.0 0.0 0.00 0.23 0.03 63 1016.2
20260508012003 10 0 0.0 0.0 0.00 0.23 0.03 63 1016.2
20260508011503 10 0 0.0 0.0 0.00 0.23 0.03 63 1016.2
20260508011003 10 0 0.0 0.0 0.00 0.23 0.03 63 1016.2
20260508010503 10 0 0.0 0.0 0.00 0.23 0.03 64 1016.2
20260508010003 10 0 0.0 0.0 0.00 0.23 0.03 64 1016.2
20260508005503 10 0 0.0 0.0 0.00 0.23 0.03 64 1016.2
20260508005216 10 0 0.0 0.0 0.00 0.23 0.03 64 1016.2
20260508004503 10 85 0.0 1.6 0.00 0.23 0.03 64 1016.1
20260508004003 10 85 0.0 1.6 0.00 0.23 0.03 65 1016.1
20260508003503 10 0 0.0 0.0 0.00 0.23 0.03 65 1016.1
20260508003003 10 0 0.0 0.0 0.00 0.23 0.03 66 1016.1
20260508002503 11 0 0.0 0.0 0.03 0.23 0.03 66 1016.1
20260508002004 11 0 0.0 0.0 0.03 0.23 0.03 66 1016.2
20260508001503 11 0 0.0 0.0 0.03 0.23 0.03 67 1016.2
20260508001003 11 0 0.0 0.0 0.03 0.23 0.03 68 1016.1
20260508000503 11 0 0.0 0.0 0.03 0.23 0.03 68 1016.1
20260508000003 11 0 0.0 0.0 0.03 0.23 0.03 68 1016.2
20260507235503 11 0 0.0 0.0 0.03 0.23 0.03 69 1016.2
20260507235004 11 0 0.0 0.0 0.03 0.23 0.03 70 1016.2
20260507234503 11 0 0.0 0.0 0.03 0.23 0.03 71 1016.2
20260507234003 11 0 0.0 0.0 0.03 0.23 0.03 71 1016.1
20260507233503 11 0 0.0 0.0 0.03 0.23 0.03 72 1016.1
20260507233219 11 0 0.0 0.0 0.03 0.23 0.03 72 1016.1
20260507232503 11 0 0.0 0.0 0.00 0.20 0.00 73 1016.2
20260507232003 11 0 0.0 0.0 0.00 0.20 0.00 74 1016.3
20260507231503 11 0 0.0 0.0 0.00 0.20 0.00 74 1016.3
20260507231219 11 0 0.0 0.0 0.00 0.20 0.00 74 1016.3
20260507230503 11 0 0.0 0.0 0.00 0.20 0.00 74 1016.2
20260507230003 11 0 0.0 0.0 0.00 0.20 0.00 74 1016.1
20260507225503 11 0 0.0 0.0 0.00 0.20 0.00 74 1016.2
20260507225003 11 322 0.0 1.6 0.00 0.20 0.00 74 1016.2
20260507224504 11 322 0.0 3.2 0.00 0.20 0.00 74 1016.2
20260507224003 11 322 0.0 3.2 0.00 0.20 0.00 74 1016.2
20260507223503 11 0 0.0 0.0 0.00 0.20 0.00 74 1016.2
20260507223003 11 0 0.0 0.0 0.00 0.20 0.00 74 1016.1
20260507222503 11 0 0.0 0.0 0.00 0.20 0.00 74 1016.1
20260507222004 11 339 0.0 1.6 0.00 0.20 0.00 74 1016.1
20260507221503 11 333 0.0 6.4 0.00 0.20 0.00 74 1016.1
20260507221003 11 332 0.0 6.4 0.00 0.20 0.00 74 1016.1
20260507220503 11 318 0.0 3.2 0.00 0.20 0.00 74 1016.1
20260507220004 11 321 0.0 3.2 0.00 0.20 0.00 73 1016.1
20260507215503 11 326 0.0 3.2 0.00 0.20 0.20 73 1016.1
20260507215003 11 0 0.0 0.0 0.00 0.20 0.20 73 1016.0
20260507214503 11 0 0.0 0.0 0.00 0.20 0.20 72 1016.0
20260507214003 11 0 0.0 0.0 0.00 0.20 0.20 71 1015.9
20260507213503 11 0 0.0 0.0 0.00 0.20 0.20 69 1015.9
20260507213004 11 0 0.0 0.0 0.00 0.20 0.20 69 1015.9
20260507212720 11 0 0.0 0.0 0.00 0.20 0.20 69 1015.9
20260507212003 10 0 0.0 0.0 0.00 0.20 0.20 69 1015.8
20260507211503 10 0 0.0 0.0 0.00 0.20 0.20 68 1015.8
20260507211003 10 0 0.0 0.0 0.00 0.20 0.20 68 1015.7
20260507210503 10 0 0.0 0.0 0.00 0.20 0.20 68 1015.7
20260507210003 10 0 0.0 0.0 0.00 0.20 0.20 68 1015.7
20260507205503 10 0 0.0 0.0 0.00 0.20 0.20 68 1015.6
20260507205003 10 0 0.0 0.0 0.00 0.20 0.20 69 1015.6
20260507204503 10 316 0.0 1.6 0.00 0.20 0.20 69 1015.5
20260507204003 10 316 0.0 1.6 0.00 0.20 0.20 69 1015.5
20260507203503 10 0 0.0 0.0 0.00 0.20 0.20 69 1015.4
20260507203003 10 0 0.0 0.0 0.00 0.20 0.20 69 1015.2
20260507202503 10 0 0.0 0.0 0.00 0.20 0.20 70 1015.1
20260507202004 10 0 0.0 0.0 0.00 0.20 0.20 70 1015.0
20260507201503 11 0 0.0 0.0 0.00 0.20 0.20 70 1015.0
20260507201218 11 0 0.0 0.0 0.00 0.20 0.20 70 1015.0
20260507200503 11 0 0.0 0.0 0.00 0.20 0.20 71 1014.9
20260507200003 11 0 0.0 0.0 0.00 0.20 0.20 72 1014.9
20260507195503 11 0 0.0 0.0 0.00 0.20 0.20 72 1014.8
20260507195218 11 0 0.0 0.0 0.00 0.20 0.20 72 1014.7
20260507194503 11 0 0.0 0.0 0.00 0.20 0.20 71 1014.6
20260507194216 11 0 0.0 0.0 0.00 0.20 0.20 71 1014.5
20260507193503 11 0 0.0 0.0 0.03 0.20 0.20 71 1014.4
20260507193003 11 0 0.0 0.0 0.03 0.20 0.20 72 1014.4
20260507192503 11 0 0.0 0.0 0.03 0.20 0.20 71 1014.3
20260507192003 11 0 0.0 0.0 0.03 0.20 0.20 72 1014.2
20260507191503 11 0 0.0 0.0 0.03 0.20 0.20 73 1014.2
20260507191003 11 0 0.0 0.0 0.03 0.20 0.20 73 1014.1
20260507190718 12 0 0.0 0.0 0.03 0.20 0.20 74 1014.1
20260507190004 12 0 0.0 0.0 0.03 0.20 0.20 74 1014.1
20260507185503 12 0 0.0 0.0 0.03 0.20 0.20 75 1013.9
20260507185003 12 0 0.0 0.0 0.03 0.20 0.20 75 1013.8
20260507184503 12 0 0.0 0.0 0.03 0.20 0.20 75 1013.7
20260507184003 12 0 0.0 0.0 0.03 0.20 0.20 75 1013.7
20260507183504 12 0 0.0 0.0 0.00 0.18 0.18 75 1013.7
20260507183003 13 0 0.0 0.0 0.00 0.18 0.18 75 1013.6
20260507182503 13 0 0.0 0.0 0.00 0.18 0.18 75 1013.5
20260507182003 13 0 0.0 0.0 0.00 0.18 0.18 75 1013.4
20260507181503 13 0 0.0 0.0 0.00 0.18 0.18 75 1013.4
20260507181003 13 316 0.0 1.6 0.00 0.18 0.18 75 1013.4
20260507180503 13 316 0.0 1.6 0.00 0.18 0.18 75 1013.4
20260507180003 13 0 0.0 0.0 0.00 0.18 0.18 75 1013.3
20260507175716 14 0 0.0 0.0 0.00 0.18 0.18 75 1013.4
20260507175003 14 0 0.0 0.0 0.00 0.18 0.18 75 1013.4
20260507174503 14 268 0.0 3.2 0.00 0.18 0.18 75 1013.3
20260507174003 14 277 0.0 8.0 0.00 0.18 0.18 75 1013.2
20260507173503 14 281 0.0 8.0 0.00 0.18 0.18 72 1013.2
20260507173004 14 0 0.0 0.0 0.00 0.18 0.18 67 1013.0
20260507172718 14 0 0.0 0.0 0.00 0.18 0.18 65 1013.0
20260507172003 14 0 0.0 0.0 0.00 0.18 0.18 64 1013.0
20260507171503 13 0 0.0 0.0 0.00 0.18 0.18 66 1013.0
20260507171003 13 0 0.0 0.0 0.00 0.18 0.18 68 1013.0
20260507170503 13 90 0.0 1.6 0.00 0.18 0.18 70 1012.9
20260507170003 14 90 0.0 1.6 0.00 0.18 0.18 70 1012.8
20260507165503 14 0 0.0 0.0 0.00 0.18 0.18 70 1012.8
20260507165003 14 0 0.0 0.0 0.00 0.18 0.18 72 1012.8
20260507164503 14 95 0.0 3.2 0.00 0.18 0.18 73 1012.8
20260507164003 15 95 0.0 3.2 0.00 0.18 0.18 74 1012.7
20260507163503 15 0 0.0 0.0 0.00 0.18 0.18 71 1012.7
20260507163003 14 0 0.0 0.0 0.00 0.18 0.18 68 1012.7
20260507162503 14 0 0.0 0.0 0.00 0.18 0.18 66 1012.7
20260507162003 13 0 0.0 0.0 0.03 0.18 0.18 70 1012.6
20260507161503 13 0 0.0 0.0 0.03 0.18 0.18 70 1012.6
20260507161003 13 131 0.0 4.8 0.05 0.18 0.18 71 1012.6
20260507160503 13 131 0.0 4.8 0.05 0.18 0.18 70 1012.5
20260507160003 13 97 0.0 4.8 0.05 0.18 0.18 71 1012.4
20260507155503 13 95 0.0 4.8 0.05 0.18 0.18 73 1012.3
20260507155003 13 96 0.0 4.8 0.05 0.18 0.18 74 1012.5
20260507154503 14 47 0.0 4.8 0.05 0.18 0.18 72 1012.5
20260507154003 14 89 6.4 19.3 0.05 0.18 0.18 73 1012.5
20260507153504 14 92 11.3 19.3 0.05 0.18 0.18 75 1012.4
20260507153003 14 94 6.4 19.3 0.10 0.18 0.18 77 1012.6
20260507152504 14 114 1.6 12.9 0.18 0.18 0.18 76 1012.6
20260507152003 14 114 1.6 12.9 0.15 0.15 0.15 74 1012.7
20260507151503 14 106 1.6 14.5 0.15 0.15 0.15 73 1012.7
20260507151003 14 101 1.6 14.5 0.15 0.15 0.15 73 1012.6
20260507150717 14 98 1.6 11.3 0.13 0.13 0.13 74 1012.6
20260507150004 15 0 0.0 0.0 0.13 0.13 0.13 74 1012.4
20260507145503 15 0 0.0 0.0 0.13 0.13 0.13 75 1012.2
20260507145003 15 86 1.6 17.7 0.13 0.13 0.13 75 1012.1
20260507144503 15 89 3.2 17.7 0.13 0.13 0.13 76 1012.0
20260507144003 16 92 1.6 16.1 0.13 0.13 0.13 75 1012.0
20260507143503 17 251 0.0 6.4 0.13 0.13 0.13 70 1012.0
20260507143003 18 269 0.0 6.4 0.08 0.08 0.08 62 1012.1
20260507142503 18 304 0.0 6.4 0.00 0.00 0.00 55 1012.0
20260507142003 18 346 0.0 8.0 0.00 0.00 0.00 54 1012.0
20260507141719 18 342 0.0 8.0 0.00 0.00 0.00 52 1012.0
20260507141003 18 320 0.0 6.4 0.00 0.00 0.00 51 1012.0
20260507140503 18 297 1.6 9.7 0.00 0.00 0.00 51 1012.0
20260507140003 18 291 3.2 16.1 0.00 0.00 0.00 51 1012.0
20260507135503 19 290 3.2 16.1 0.00 0.00 0.00 50 1011.9
20260507135003 19 293 1.6 14.5 0.00 0.00 0.00 50 1012.0
20260507134503 19 309 0.0 9.7 0.00 0.00 0.00 51 1012.1
20260507134003 19 296 1.6 17.7 0.00 0.00 0.00 50 1012.0
20260507133718 19 286 6.4 22.5 0.00 0.00 0.00 49 1012.0
20260507133003 19 284 8.0 24.1 0.00 0.00 0.00 49 1012.0
20260507132503 20 289 4.8 24.1 0.00 0.00 0.00 50 1012.0
20260507132217 20 293 3.2 16.1 0.00 0.00 0.00 48 1012.0
20260507131503 20 289 0.0 6.4 0.00 0.00 0.00 49 1012.1
20260507131003 19 237 0.0 1.6 0.00 0.00 0.00 50 1012.1
20260507130503 19 214 0.0 1.6 0.00 0.00 0.00 49 1012.1
20260507130003 18 277 3.2 14.5 0.00 0.00 0.00 51 1012.2
20260507125503 18 276 3.2 14.5 0.00 0.00 0.00 51 1012.2
20260507125003 18 280 1.6 14.5 0.00 0.00 0.00 51 1012.2
20260507124503 19 285 0.0 11.3 0.00 0.00 0.00 50 1012.2
20260507124003 18 266 0.0 11.3 0.00 0.00 0.00 51 1012.2
20260507123503 18 266 0.0 16.1 0.00 0.00 0.00 51 1012.2
20260507123003 18 248 0.0 16.1 0.00 0.00 0.00 50 1012.2
20260507122716 18 242 0.0 16.1 0.00 0.00 0.00 50 1012.2
20260507122217 19 229 0.0 12.9 0.00 0.00 0.00 48 1012.1
20260507121503 19 232 0.0 12.9 0.00 0.00 0.00 51 1012.1
20260507121003 18 204 0.0 11.3 0.00 0.00 0.00 51 1012.1
20260507120503 18 248 0.0 3.2 0.00 0.00 0.00 50 1012.1
20260507120004 18 273 1.6 12.9 0.00 0.00 0.00 51 1012.2
20260507115503 18 276 1.6 12.9 0.00 0.00 0.00 51 1012.1
20260507115219 18 276 1.6 11.3 0.00 0.00 0.00 51 1012.2
20260507114503 19 267 0.0 9.7 0.00 0.00 0.00 50 1012.1
20260507114003 20 268 1.6 14.5 0.00 0.00 0.00 50 1012.2
20260507113503 20 259 3.2 14.5 0.00 0.00 0.00 50 1012.2
20260507113003 20 201 1.6 9.7 0.00 0.00 0.00 49 1012.2
20260507112503 20 208 3.2 11.3 0.00 0.00 0.00 49 1012.2
20260507112216 20 208 3.2 14.5 0.00 0.00 0.00 50 1012.2
20260507111504 20 152 6.4 20.9 0.00 0.00 0.00 51 1012.2
20260507111003 20 125 4.8 20.9 0.00 0.00 0.00 52 1012.2
20260507110503 20 109 1.6 17.7 0.00 0.00 0.00 52 1012.2
20260507110216 19 193 0.0 16.1 0.00 0.00 0.00 53 1012.2
20260507105503 19 197 1.6 16.1 0.00 0.00 0.00 53 1012.2
20260507105003 20 193 0.0 11.3 0.00 0.00 0.00 52 1012.3
20260507104503 20 118 0.0 1.6 0.00 0.00 0.00 54 1012.2
20260507104003 18 127 0.0 1.6 0.00 0.00 0.00 58 1012.3
20260507103503 18 5 0.0 4.8 0.00 0.00 0.00 58 1012.3
20260507103003 18 5 0.0 4.8 0.00 0.00 0.00 61 1012.4
20260507102503 18 4 0.0 3.2 0.00 0.00 0.00 60 1012.4
20260507102003 17 342 0.0 6.4 0.00 0.00 0.00 61 1012.4
20260507101503 17 335 0.0 6.4 0.00 0.00 0.00 62 1012.4
20260507101003 17 0 0.0 0.0 0.00 0.00 0.00 62 1012.4
20260507100719 17 0 0.0 0.0 0.00 0.00 0.00 62 1012.4
20260507100004 17 0 0.0 0.0 0.00 0.00 0.00 62 1012.5
20260507095503 17 174 0.0 3.2 0.00 0.00 0.00 63 1012.4
20260507095003 17 194 0.0 3.2 0.00 0.00 0.00 63 1012.4
20260507094719 17 203 0.0 3.2 0.00 0.00 0.00 63 1012.4
20260507094003 17 285 0.0 1.6 0.00 0.00 0.00 64 1012.3
20260507093503 17 293 0.0 1.6 0.00 0.00 0.00 65 1012.3
20260507093003 16 0 0.0 0.0 0.00 0.00 0.00 65 1012.2
20260507092503 16 324 0.0 1.6 0.00 0.00 0.00 65 1012.2
20260507092003 16 327 0.0 6.4 0.00 0.00 0.00 65 1012.2
20260507091503 17 267 1.6 16.1 0.00 0.00 0.00 64 1012.1
20260507091003 17 254 1.6 17.7 0.00 0.00 0.00 65 1012.0
20260507090503 17 244 0.0 17.7 0.00 0.00 0.00 63 1011.9
20260507090004 17 54 0.0 4.8 0.00 0.00 0.00 62 1012.0
20260507085503 17 57 0.0 4.8 0.00 0.00 0.00 65 1011.9
20260507085003 16 312 0.0 1.6 0.00 0.00 0.00 66 1011.9
20260507084719 16 302 0.0 1.6 0.00 0.00 0.00 66 1011.9
20260507084216 16 0 0.0 0.0 0.00 0.00 0.00 66 1011.8
20260507083503 16 0 0.0 0.0 0.00 0.00 0.00 67 1011.9
20260507083003 16 314 0.0 6.4 0.00 0.00 0.00 68 1011.8
20260507082718 16 313 0.0 6.4 0.00 0.00 0.00 67 1011.8
20260507082003 16 326 0.0 8.0 0.00 0.00 0.00 68 1011.8
20260507081503 16 338 0.0 8.0 0.00 0.00 0.00 68 1011.7
20260507081003 16 283 0.0 4.8 0.00 0.00 0.00 68 1011.8
20260507080503 16 285 0.0 4.8 0.00 0.00 0.00 69 1011.7
20260507080003 15 305 0.0 12.9 0.00 0.00 0.00 69 1011.8
20260507075503 16 302 0.0 12.9 0.00 0.00 0.00 68 1011.7
20260507075003 16 292 0.0 12.9 0.00 0.00 0.00 68 1011.7
20260507074503 16 309 3.2 14.5 0.00 0.00 0.00 68 1011.7
20260507074003 16 324 3.2 17.7 0.00 0.00 0.00 69 1011.6
20260507073503 16 333 1.6 17.7 0.00 0.00 0.00 68 1011.6
20260507073217 16 360 0.0 9.7 0.00 0.00 0.00 70 1011.6
20260507072503 15 0 0.0 0.0 0.00 0.00 0.00 70 1011.6
20260507072003 15 293 0.0 8.0 0.00 0.00 0.00 71 1011.6
20260507071504 15 314 0.0 8.0 0.00 0.00 0.00 72 1011.6
20260507071003 15 298 1.6 11.3 0.00 0.00 0.00 72 1011.6
20260507070503 15 288 1.6 11.3 0.00 0.00 0.00 73 1011.5
20260507070006 15 271 0.0 9.7 0.00 0.00 0.00 74 1011.5
20260507065503 15 0 0.0 0.0 0.00 0.00 0.00 74 1011.5
20260507065003 15 0 0.0 0.0 0.00 0.00 0.00 74 1011.4
20260507064503 15 274 0.0 3.2 0.00 0.00 0.00 74 1011.4
20260507064003 15 292 0.0 4.8 0.00 0.00 0.00 75 1011.4
20260507063503 14 298 0.0 6.4 0.00 0.00 0.00 75 1011.3
20260507063003 14 284 0.0 6.4 0.00 0.00 0.00 75 1011.3
20260507062718 14 248 1.6 11.3 0.00 0.00 0.00 76 1011.3
20260507062219 14 256 1.6 11.3 0.00 0.00 0.00 76 1011.2
20260507061503 14 317 0.0 4.8 0.00 0.00 0.00 77 1011.0
20260507061003 14 0 0.0 0.0 0.00 0.00 0.00 77 1011.0
20260507060503 13 0 0.0 0.0 0.00 0.00 0.00 77 1011.0
20260507060003 13 0 0.0 0.0 0.00 0.00 0.00 77 1011.0
20260507055503 13 0 0.0 0.0 0.00 0.00 0.00 77 1011.0
20260507055003 13 0 0.0 0.0 0.00 0.00 0.00 77 1010.9
20260507054718 13 0 0.0 0.0 0.00 0.00 0.00 77 1010.9
20260507054003 13 0 0.0 0.0 0.00 0.00 0.00 76 1010.9
20260507053719 13 0 0.0 0.0 0.00 0.00 0.00 76 1010.9
20260507053004 13 0 0.0 0.0 0.00 0.00 0.00 76 1010.7
20260507052503 13 0 0.0 0.0 0.00 0.00 0.00 76 1010.7
20260507052003 13 0 0.0 0.0 0.00 0.00 0.00 76 1010.7
20260507051503 13 0 0.0 0.0 0.00 0.00 0.00 76 1010.6
20260507051003 13 0 0.0 0.0 0.00 0.00 0.00 76 1010.4
20260507050503 13 0 0.0 0.0 0.00 0.00 0.00 75 1010.4
20260507050003 13 0 0.0 0.0 0.00 0.00 0.00 74 1010.3
20260507045503 13 0 0.0 0.0 0.00 0.00 0.00 74 1010.2
20260507045003 13 0 0.0 0.0 0.00 0.00 0.00 73 1010.1
20260507044503 12 0 0.0 0.0 0.00 0.00 0.00 73 1010.0
20260507044218 12 0 0.0 0.0 0.00 0.00 0.00 72 1010.0
20260507043720 12 0 0.0 0.0 0.00 0.00 0.00 72 1010.0
20260507043003 12 0 0.0 0.0 0.00 0.00 0.00 71 1009.8
20260507042503 12 0 0.0 0.0 0.00 0.00 0.00 70 1009.8
20260507042003 12 0 0.0 0.0 0.00 0.00 0.00 69 1009.8
20260507041503 12 0 0.0 0.0 0.00 0.00 0.00 69 1009.7
20260507041004 12 0 0.0 0.0 0.00 0.00 0.00 69 1009.7
20260507040503 12 0 0.0 0.0 0.00 0.00 0.00 69 1009.7
20260507040003 12 0 0.0 0.0 0.00 0.00 0.00 70 1009.6
20260507035503 12 0 0.0 0.0 0.00 0.00 0.00 69 1009.4
20260507035003 12 127 0.0 4.8 0.00 0.00 0.00 70 1009.2
20260507034503 12 111 1.6 6.4 0.00 0.00 0.00 70 1009.0
20260507034218 12 101 1.6 6.4 0.00 0.00 0.00 70 1009.0
20260507033719 12 91 3.2 6.4 0.00 0.00 0.00 70 1008.9
20260507033003 12 90 1.6 6.4 0.00 0.00 0.00 70 1008.8
20260507032503 12 113 0.0 1.6 0.00 0.00 0.00 72 1008.7
20260507032003 12 113 0.0 1.6 0.00 0.00 0.00 71 1008.7
20260507031719 12 113 0.0 1.6 0.00 0.00 0.00 71 1008.6
20260507031003 12 0 0.0 0.0 0.00 0.00 0.00 71 1008.7
20260507030503 12 130 0.0 3.2 0.00 0.00 0.00 71 1008.7
20260507030003 12 109 0.0 3.2 0.00 0.00 0.00 72 1008.8
20260507025503 12 95 0.0 3.2 0.00 0.00 0.00 72 1008.7
20260507025004 12 91 0.0 1.6 0.00 0.00 0.00 72 1008.6
20260507024503 12 0 0.0 0.0 0.00 0.00 0.00 72 1008.6
20260507024003 12 0 0.0 0.0 0.00 0.00 0.00 73 1008.5